This is the latest recevied weather packets stored in our database for station/object KC1OEK-13. If no packets are shown the sender has not sent any weather packets the latest 10 day(s).
| Time | Temp. | Humidity | Pressure | Rain* | Wind** | Luminosity | Snow |
|---|---|---|---|---|---|---|---|
| 1777859491 | 5.56° C | 60% | 1013.1 hPa | 0 mm | - | 0 W/m² | - |
| 1777859187 | 5.56° C | 60% | 1013 hPa | 0 mm | - | 0 W/m² | - |
| 1777858885 | 6.11° C | 58% | 1012.9 hPa | 0 mm | - | 0 W/m² | - |
| 1777858582 | 6.11° C | 57% | 1012.8 hPa | 0 mm | - | 0 W/m² | - |
| 1777858279 | 6.67° C | 55% | 1012.8 hPa | 0 mm | - | 0 W/m² | - |
| 1777857976 | 6.67° C | 54% | 1012.9 hPa | 0 mm | - | 0 W/m² | - |
| 1777857674 | 7.22° C | 53% | 1012.8 hPa | 0 mm | - | 0 W/m² | - |
| 1777857370 | 7.22° C | 53% | 1012.9 hPa | 0 mm | - | 0 W/m² | - |
| 1777857067 | 7.78° C | 51% | 1012.4 hPa | 0 mm | - | 0 W/m² | - |
| 1777856762 | 7.78° C | 51% | 1012.4 hPa | 0 mm | - | 0 W/m² | - |
| 1777856459 | 8.33° C | 51% | 1012.3 hPa | 0 mm | - | 0 W/m² | - |
| 1777856155 | 8.33° C | 50% | 1012.3 hPa | 0 mm | - | 0 W/m² | - |
| 1777855853 | 8.89° C | 48% | 1012.1 hPa | 0 mm | - | 0 W/m² | - |
| 1777855551 | 8.89° C | 48% | 1012.2 hPa | 0 mm | - | 0 W/m² | - |
| 1777855247 | 8.89° C | 47% | 1012.1 hPa | 0 mm | - | 0 W/m² | - |
| 1777854943 | 9.44° C | 47% | 1012.2 hPa | 0 mm | - | 0 W/m² | - |
| 1777854640 | 9.44° C | 45% | 1012 hPa | 0 mm | - | 0 W/m² | - |
| 1777854337 | 10° C | 44% | 1012 hPa | 0 mm | - | 0 W/m² | - |
| 1777854035 | 10° C | 43% | 1011.8 hPa | 0 mm | - | 0 W/m² | - |
| 1777853733 | 10° C | 42% | 1011.8 hPa | 0 mm | - | 0 W/m² | - |
| 1777853428 | 10° C | 43% | 1011.6 hPa | 0 mm | - | 0 W/m² | - |
| 1777853126 | 10.56° C | 43% | 1011.7 hPa | 0 mm | - | 1 W/m² | - |
| 1777852823 | 10.56° C | 41% | 1011.5 hPa | 0 mm | - | 1 W/m² | - |
| 1777852521 | 10.56° C | 42% | 1011.5 hPa | 0 mm | - | 1 W/m² | - |
| 1777852218 | 11.11° C | 41% | 1011.5 hPa | 0 mm | - | 2 W/m² | - |
* Rain latest hour (hover to see other rain measurements)
** Current wind speed in m/s (hover to see current wind gust speed)